Petersburg, AK

7:09 AM AKST on November 23, 2017 (GMT -0900)
Johnson Petersburg

Weather History for PAPG - November, 2013

Change the Weather History Date:

Monday, November 11, 2013

  Actual Average Record
Temperature  
Mean Temperature 30 °F -  
Max Temperature 35 °F 39 °F 51 °F (1987)
Min Temperature 24 °F 31 °F 18 °F (1985)
Degree Days  
Heating Degree Days 36    
Moisture  
Dew Point 28 °F    
Average Humidity 88    
Maximum Humidity 100    
Minimum Humidity 70    
Precipitation  
Precipitation 0.07 in - - ()
Sea Level Pressure  
Sea Level Pressure 29.97 in    
Wind  
Wind Speed 1 mph (SW)    
Max Wind Speed 7 mph    
Max Gust Speed -    
Visibility 10 miles    
Events Rain    
Averages and records for this station are not official NWS values.
T = Trace of Precipitation, MM = Missing Value Source: NWS Daily Summary

Daily Weather History Graph

Daily Weather History Graph

Search for Another Location

Airport or City:

Trip Planner

Search our weather history database for the weather conditions in past years. The results will help you decide how hot, cold, wet, or windy it might be!

Date:

Astronomy

Nov. 11, 2013 Rise Set
Actual Time 7:24 AM AKST 3:46 PM AKST
Civil Twilight 6:41 AM AKST 4:29 PM AKST
Nautical Twilight 5:55 AM AKST 5:15 PM AKST
Astronomical Twilight 5:10 AM AKST 5:59 PM AKST
Moon 1:32 PM AKST (11/11) 12:08 AM AKST (11/11)
Length of Visible Light 9h 47m
Length of Day
8h 22m
Waxing Gibbous, 68% of the Moon is Illuminated
Nov 11
Waxing Gibbous
Nov 17
Full
Nov 25
Last Quarter
Dec 2
New
Dec 9
First Quarter

Hourly Weather History & Observations

Time (AKST) Temp. Windchill Dew Point Humidity Pressure Visibility Wind Dir Wind Speed Gust Speed Precip Events Conditions
12:16 AM 26.6 °F - 24.8 °F 93% 30.21 in 3.0 mi Calm Calm - N/A   Scattered Clouds
12:36 AM 26.6 °F - 23.0 °F 86% 30.20 in 10.0 mi Calm Calm - N/A   Clear
12:56 AM 26.6 °F - 24.8 °F 93% 30.20 in 10.0 mi Calm Calm - N/A   Clear
1:36 AM 26.6 °F - 24.8 °F 93% 30.18 in 10.0 mi Calm Calm - N/A   Clear
1:56 AM 26.6 °F - 24.8 °F 93% 30.17 in 10.0 mi Calm Calm - N/A   Clear
2:16 AM 26.6 °F - 23.0 °F 86% 30.16 in 10.0 mi Calm Calm - N/A   Clear
2:36 AM 26.6 °F 22.6 °F 23.0 °F 86% 30.15 in 10.0 mi SSW 3.5 mph - N/A   Clear
3:16 AM 26.6 °F - 26.6 °F 100% 30.13 in 10.0 mi Calm Calm - N/A   Clear
3:36 AM 26.6 °F - 26.6 °F 100% 30.12 in 10.0 mi Calm Calm - N/A   Clear
3:56 AM 26.6 °F - 23.0 °F 86% 30.11 in 10.0 mi Calm Calm - N/A   Clear
4:16 AM 24.8 °F - 21.2 °F 86% 30.10 in 10.0 mi Calm Calm - N/A   Clear
4:36 AM 26.6 °F - 24.8 °F 93% 30.09 in 10.0 mi Calm Calm - N/A   Clear
4:56 AM 26.6 °F 22.6 °F 24.8 °F 93% 30.08 in 10.0 mi SW 3.5 mph - N/A   Clear
5:36 AM 24.8 °F - 21.2 °F 86% 30.07 in 10.0 mi Calm Calm - N/A   Clear
6:16 AM 24.8 °F - 21.2 °F 86% 30.06 in 10.0 mi Calm Calm - N/A   Clear
6:36 AM 24.8 °F - 21.2 °F 86% 30.05 in 10.0 mi Calm Calm - N/A   Clear
7:55 AM 26.6 °F - 23.0 °F 86% 30.02 in 10.0 mi Calm Calm - N/A   Clear
8:36 AM 26.6 °F 21.2 °F 24.8 °F 93% 30.02 in 10.0 mi SW 4.6 mph - N/A   Clear
8:56 AM 24.8 °F - 21.2 °F 86% 30.02 in 10.0 mi Calm Calm - N/A   Clear
9:16 AM 24.8 °F 19.1 °F 23.0 °F 93% 30.02 in 10.0 mi West 4.6 mph - N/A   Clear
9:36 AM 28.4 °F - 26.6 °F 93% 30.01 in 10.0 mi Calm Calm - N/A   Clear
9:56 AM 30.2 °F - 26.6 °F 86% 30.01 in 10.0 mi Calm Calm - N/A   Partly Cloudy
10:36 AM 30.2 °F - 28.4 °F 93% 30.01 in 10.0 mi Calm Calm - N/A   Partly Cloudy
10:56 AM 32.0 °F - 28.4 °F 87% 30.00 in 10.0 mi Calm Calm - N/A   Clear
11:16 AM 32.0 °F - 28.4 °F 87% 30.00 in 10.0 mi Calm Calm - N/A   Clear
11:36 AM 33.8 °F 29.6 °F 28.4 °F 81% 29.99 in 10.0 mi SW 4.6 mph - N/A   Clear
11:56 AM 33.8 °F 30.8 °F 28.4 °F 81% 29.98 in 10.0 mi SW 3.5 mph - N/A   Partly Cloudy
12:16 PM 33.8 °F 28.6 °F 28.4 °F 81% 29.97 in 10.0 mi SSW 5.8 mph - N/A   Partly Cloudy
12:36 PM 33.8 °F 30.8 °F 26.6 °F 75% 29.96 in 10.0 mi SSW 3.5 mph - N/A   Partly Cloudy
12:55 PM 35.6 °F - 26.6 °F 70% 29.96 in 10.0 mi Calm Calm - N/A   Scattered Clouds
1:16 PM 33.8 °F 30.8 °F 28.4 °F 81% 29.95 in 10.0 mi WSW 3.5 mph - N/A   Scattered Clouds
1:36 PM 32.0 °F - 26.6 °F 80% 29.95 in 10.0 mi Calm Calm - N/A   Scattered Clouds
1:56 PM 33.8 °F 30.8 °F 26.6 °F 75% 29.94 in 10.0 mi SSW 3.5 mph - N/A   Scattered Clouds
2:16 PM 33.8 °F - 28.4 °F 81% 29.93 in 10.0 mi Calm Calm - N/A   Scattered Clouds
2:56 PM 33.8 °F 30.8 °F 28.4 °F 81% 29.90 in 10.0 mi SW 3.5 mph - N/A   Mostly Cloudy
3:36 PM 33.8 °F 29.6 °F 28.4 °F 81% 29.88 in 10.0 mi SW 4.6 mph - N/A   Mostly Cloudy
3:56 PM 33.8 °F 29.6 °F 28.4 °F 81% 29.87 in 10.0 mi SW 4.6 mph - N/A   Mostly Cloudy
4:16 PM 33.8 °F - 28.4 °F 81% 29.88 in 10.0 mi Calm Calm - N/A   Mostly Cloudy
4:36 PM 33.8 °F 28.6 °F 28.4 °F 81% 29.88 in 10.0 mi West 5.8 mph - N/A   Mostly Cloudy
4:56 PM - - - N/A% 29.86 in 10.0 mi WSW 6.9 mph - N/A   Mostly Cloudy
5:16 PM 33.8 °F 28.6 °F 28.4 °F 81% 29.87 in 10.0 mi SSW 5.8 mph - N/A   Mostly Cloudy
5:36 PM 33.8 °F 27.7 °F 28.4 °F 81% 29.85 in 10.0 mi SW 6.9 mph - N/A   Mostly Cloudy
5:55 PM 33.8 °F 28.6 °F 30.2 °F 87% 19.84 in 10.0 mi South 5.8 mph - N/A Rain Light Rain
6:56 PM 33.8 °F - 30.2 °F 87% 29.83 in 10.0 mi Calm Calm - N/A   Overcast
7:36 PM 33.8 °F - 32.0 °F 93% 29.83 in 10.0 mi Calm Calm - N/A   Overcast
7:56 PM 33.8 °F 29.6 °F 32.0 °F 93% 29.83 in 10.0 mi SW 4.6 mph - 0.02 in   Overcast
8:36 PM 35.6 °F 31.7 °F 33.8 °F 93% 29.82 in 10.0 mi WSW 4.6 mph - 0.02 in   Overcast
8:56 PM 35.6 °F - 33.8 °F 93% 29.82 in 10.0 mi Calm Calm - 0.04 in   Overcast
9:16 PM 35.6 °F 32.8 °F 33.8 °F 93% 29.81 in 10.0 mi SW 3.5 mph - 0.01 in   Overcast
9:36 PM 35.6 °F - 33.8 °F 93% 29.81 in 10.0 mi Calm Calm - 0.01 in   Overcast
10:16 PM 35.6 °F 32.8 °F 33.8 °F 93% 29.81 in 5.0 mi WSW 3.5 mph - N/A   Overcast
10:56 PM 35.6 °F 32.8 °F 33.8 °F 93% 29.81 in 3.0 mi SW 3.5 mph - N/A   Overcast
11:16 PM 35.6 °F - 33.8 °F 93% 29.81 in 7.0 mi Calm Calm - N/A   Overcast
11:36 PM 35.6 °F - 35.6 °F 100% 29.80 in 10.0 mi Calm Calm - N/A   Overcast
11:56 PM 35.6 °F - 33.8 °F 93% 29.79 in 10.0 mi Calm Calm - N/A   Overcast